User: anonymous   Login
Location: Brno
(49.2000°N, 16.6330°E)
Time: 07:42:25
(UTC+01:00)
Language:

Cosmos 1459 Rocket - Orbit

View from above orbital plane
View from above orbital plane
View from above satellite
View from above satellite

Ground track
Ground track

The orbit data is extracted from the following two-line orbital elements,

1 14059U 83042B   14330.16263944  .00000086  00000-0  69264-4 0  4307
2 14059 082.9734 035.1431 0042407 011.9360 044.0675 13.78476284587071
Epoch (UTC): 26 November 2014 03:54:12
Eccentricity: 0.0042407
inclination: 82.9734°
perigee height: 938 km
apogee height: 1000 km
right ascension of ascending node: 35.1431°
argument of perigee: 11.9360°
revolutions per day: 13.78476284
mean anomaly at epoch: 44.0675°
orbit number at epoch: 58707

The dashed part of the orbit path shows where the satellite is in the earth's shadow,  

DLR